This is the latest recevied weather packets stored in our database for station/object KD5HIA. If no packets are shown the sender has not sent any weather packets the latest 10 day(s).
| Time | Temp. | Humidity | Pressure | Rain* | Wind** | Luminosity | Snow |
|---|---|---|---|---|---|---|---|
| 1777425916 | 29.44° C | 40% | 1009.9 hPa | 0 mm | - | 6 W/m² | - |
| 1777425316 | 30° C | 38% | 1010 hPa | 0 mm | - | 10 W/m² | - |
| 1777424716 | 31.11° C | 35% | 1010 hPa | 0 mm | - | 25 W/m² | - |
| 1777424116 | 31.67° C | 33% | 1010.1 hPa | 0 mm | - | 59 W/m² | - |
| 1777423516 | 32.22° C | 31% | 1009.9 hPa | 0 mm | - | 78 W/m² | - |
| 1777422916 | 32.78° C | 29% | 1009.9 hPa | 0 mm | - | 129 W/m² | - |
| 1777422316 | 32.78° C | 28% | 1010.1 hPa | 0 mm | - | 77 W/m² | - |
| 1777421716 | 33.33° C | 27% | 1009.9 hPa | 0 mm | - | 133 W/m² | - |
| 1777421116 | 33.33° C | 26% | 1009.8 hPa | 0 mm | - | 121 W/m² | - |
| 1777420517 | 33.33° C | 21% | 1009.8 hPa | 0 mm | - | 121 W/m² | - |
| 1777419916 | 33.89° C | 21% | 1009.6 hPa | 0 mm | - | 139 W/m² | - |
| 1777419316 | 34.44° C | 21% | 1009.7 hPa | 0 mm | - | 227 W/m² | - |
| 1777418716 | 34.44° C | 21% | 1009.8 hPa | 0 mm | - | 199 W/m² | - |
| 1777418117 | 34.44° C | 23% | 1009.8 hPa | 0 mm | - | 227 W/m² | - |
| 1777417516 | 34.44° C | 22% | 1009.8 hPa | 0 mm | - | 252 W/m² | - |
| 1777416916 | 35° C | 23% | 1009.7 hPa | 0 mm | - | 338 W/m² | - |
| 1777416316 | 35° C | 23% | 1009.7 hPa | 0 mm | - | 564 W/m² | - |
| 1777415720 | 35.56° C | 24% | 1010 hPa | 0 mm | - | 625 W/m² | - |
| 1777415121 | 35.56° C | 22% | 1009.9 hPa | 0 mm | - | 616 W/m² | - |
| 1777414520 | 35.56° C | 23% | 1009.9 hPa | 0 mm | - | 564 W/m² | - |
| 1777413916 | 35.56° C | 23% | 1010.1 hPa | 0 mm | - | 384 W/m² | - |
| 1777413316 | 36.11° C | 23% | 1010.1 hPa | 0 mm | - | 715 W/m² | - |
| 1777412717 | 36.11° C | 23% | 1010.1 hPa | 0 mm | - | 710 W/m² | - |
| 1777412117 | 36.11° C | 23% | 1010.2 hPa | 0 mm | - | 723 W/m² | - |
| 1777411517 | 36.11° C | 22% | 1010.4 hPa | 0 mm | - | 727 W/m² | - |
* Rain latest hour (hover to see other rain measurements)
** Current wind speed in m/s (hover to see current wind gust speed)